Regional Weather Roundup
Issued by NWS

Home | Current Version | Previous Version | Graphics & Text | Print | Product List | Glossary On
Versions: 1 2 3 4 5 6 7 8 9 10 11 12 13 14 15 16 17 18 19 20 21 22 23 24 25 26 27 28 29 30 31 32 33 34 35 36 37 38 39 40 41 42 43 44 45 46 47 48 49 50
000
ASUS43 KFSD 281602
RWRSD

WEATHER ROUNDUP FOR SOUTH DAKOTA
NATIONAL WEATHER SERVICE SIOUX FALLS SD
1100 AM CDT FRI JUL 28 2017

NOTE: "FAIR" INDICATES FEW OR NO CLOUDS BELOW 12,000 FEET WITH NO
SIGNIFICANT WEATHER AND/OR OBSTRUCTIONS TO VISIBILITY.


SDZ001>005-009-010-012>017-281700-
NORTHWEST AND NORTH CENTRAL SOUTH DAKOTA

CITY           SKY/WX    TMP DP  RH WIND       PRES   REMARKS
BUFFALO          N/A     78  59  51 SE10      29.97F
FAITH            N/A     74  63  68 SE14G22   30.04F
MOBRIDGE       CLOUDY    81  64  56 S15       30.03S
$$

SDZ012>016-024>037-041>051-057-063-072>074-281700-
SOUTHWEST AND SOUTH CENTRAL SOUTH DAKOTA

CITY           SKY/WX    TMP DP  RH WIND       PRES   REMARKS
RAPID CTY ARPT SUNNY     77  59  53 N5        30.06S
PIERRE         CLOUDY    79  56  45 S15       30.05R
CUSTER         SUNNY     69  58  67 W6        30.18F
ELLSWORTH AFB  SUNNY     77  59  53 N7        30.05F
PHILIP         SUNNY     79  65  62 S9G18     30.02F
PINE RIDGE     CLOUDY    73  62  68 SE8       30.10S
SPEARFISH      FAIR      73  59  60 NE8       30.10S
WINNER         FAIR      81  61  50 S14       30.08S
$$

SDZ004>011-016>023-039-040-281700-
NORTHEAST SOUTH DAKOTA

CITY           SKY/WX    TMP DP  RH WIND       PRES   REMARKS
ABERDEEN       CLOUDY    79  65  62 SE13      30.08S
WATERTOWN      MOSUNNY   76  62  62 S8        30.11S
BROOKINGS      PTSUNNY   74  63  68 CALM      30.13R
SISSETON         N/A     78  65  63 SE5       30.09R
$$

SDZ017-020-022-023-036>040-048>070-281700-
SOUTHEAST SOUTH DAKOTA

CITY           SKY/WX    TMP DP  RH WIND       PRES   REMARKS
SIOUX FALLS    CLOUDY    77  64  64 E5        30.11R
HURON          CLOUDY    72  65  78 SE8       30.08F
CHAMBERLAIN    CLOUDY    74  66  75 S9        30.09R
MITCHELL       CLOUDY    74  66  76 SE8       30.09F
YANKTON        LGT RAIN  70  65  84 SE6       30.09F
$$

ABBREVIATIONS USED IN REMARKS
   TC - TEMPERATURE IN CELSIUS
  WCI - WIND CHILL INDEX
   HX - HEAT INDEX
  VSB - VISIBILITY




USA.gov is the U.S. government's official web portal to all federal, state and local government web resources and services.